[[{"header":{"parameterUnit":"m.s-1","parameterCategory":1,"la1":30.2991,"la2":30.254,"lo1":-89.0895,"lo2":-89.0444,"dy":0.0017,"dx":0.0017,"nx":28,"ny":28,"refTime":"2025-08-06T21:00:00:Z","depth":0,"parameterNumber":2,"parameterNumberName":"U-component_of_WINDS"},"data":[0,0,0,0,0,0,0,0,0,0,0,0,0,0,0,0,0,0,0,0,0,0,0,0,0,0,0,0,0,0,0,0,0,0,0,0,0,0,0,0,0,0,0,0,0,0,0,0,0,0,0,0,0,0,0,0,0,0,-1.1256,-1.1256,0,-1.1218,-1.1217,-1.1217,-1.1186,-1.1185,-1.1185,-1.1185,-1.1145,-1.1144,-1.1144,0,0,0,0,0,0,0,0,0,0,0,0,0,-1.1302,-1.1302,-1.1256,-1.1256,-1.1255,-1.1218,-1.1217,-1.1217,-1.1186,-1.1185,-1.1185,-1.1185,-1.1145,-1.1144,-1.1143,0,0,0,0,0,0,0,0,0,0,0,0,0,-1.1275,-1.1302,-1.1256,-1.1235,-1.1233,-1.1218,-1.1217,-1.1217,-1.1186,-1.1185,-1.1185,-1.1184,-1.1146,-1.1144,-1.1143,-1.1146,0,0,-1.114,-1.1139,0,0,0,0,0,0,0,0,-1.1277,-1.1273,-1.1239,-1.1237,-1.1234,-1.1206,-1.1219,-1.1193,-1.1186,-1.1204,-1.1185,-1.1184,-1.1166,-1.1163,-1.1157,-1.1144,-1.1142,-1.114,-1.1139,-1.1139,-1.1138,0,0,0,0,0,0,0,-1.1279,-1.1275,-1.1241,-1.1238,-1.1235,-1.1228,-1.1223,-1.1214,-1.1188,-1.1202,-1.12,-1.1196,-1.1164,-1.1158,-1.1156,-1.1142,-1.114,-1.1139,-1.1138,-1.1138,-1.1129,-1.1129,0,0,0,0,0,0,-1.1284,-1.1277,-1.1242,-1.124,-1.1255,-1.1227,-1.1222,-1.1215,-1.1188,-1.1183,-1.1196,-1.1194,-1.116,-1.1157,-1.1154,-1.1155,-1.1139,-1.1138,-1.1137,-1.1128,-1.1129,-1.1129,0,0,0,0,0,0,-1.1285,-1.1281,-1.1244,-1.1258,-1.1252,-1.1227,-1.122,-1.1215,-1.1208,-1.1183,-1.1178,-1.1194,-1.116,-1.1156,-1.1148,-1.1153,-1.1137,-1.1136,-1.1128,-1.1129,-1.1129,-1.1156,0,0,0,0,0,0,-1.1286,-1.1282,-1.1282,-1.1258,-1.1252,-1.1239,-1.122,-1.1215,-1.1207,-1.1204,-1.118,-1.1176,-1.1159,-1.115,-1.1147,-1.1151,-1.1135,-1.1127,-1.1128,-1.1129,-1.1155,-1.1158,-1.116,0,0,0,0,0,-1.1288,-1.1292,-1.1283,-1.1279,-1.1252,-1.1239,-1.1235,-1.1216,-1.1207,-1.1208,-1.1191,-1.1177,-1.1153,-1.1149,-1.1146,-1.115,-1.1127,-1.1128,-1.1129,-1.1153,-1.1157,-1.116,0,0,0,0,0,0,-1.1317,-1.1288,-1.1278,-1.1273,-1.1259,-1.1234,-1.1233,-1.122,-1.1208,-1.1206,-1.1182,-1.1177,-1.1172,-1.116,-1.1156,-1.115,-1.1138,-1.1138,-1.1158,-1.1161,-1.1164,-1.1166,-1.1134,0,0,0,0,0,-1.1323,-1.1315,-1.129,-1.1288,-1.1282,-1.1259,-1.1253,-1.1239,-1.1223,-1.1216,-1.12,-1.1185,-1.1174,-1.1167,-1.1156,-1.1153,-1.1147,-1.1154,-1.1157,-1.1159,-1.1159,-1.1157,-1.1159,-1.1133,-1.1133,-1.1133,0,0,-1.1335,-1.1318,-1.1314,-1.1294,-1.1281,-1.1273,-1.1254,-1.1246,-1.124,-1.1215,-1.1207,-1.1194,-1.1176,-1.1171,-1.1168,-1.1161,-1.1166,-1.1161,-1.1163,-1.1161,-1.1158,-1.1161,-1.1163,-1.1133,-1.1133,-1.1133,0,0,-1.1353,-1.134,-1.1336,-1.1324,-1.1305,-1.129,-1.1289,-1.1266,-1.1257,-1.1248,-1.1229,-1.1221,-1.1203,-1.1191,-1.1182,-1.1195,-1.1181,-1.1192,-1.1206,-1.1204,-1.1206,-1.1208,-1.1212,-1.1213,-1.1193,-1.1193,-1.1193,0,-1.137,-1.1357,-1.1337,-1.133,-1.1321,-1.1299,-1.1295,-1.1284,-1.1262,-1.1257,-1.125,-1.1226,-1.1212,-1.1204,-1.1207,-1.1201,-1.1199,-1.1194,-1.1207,-1.1209,-1.121,-1.1214,-1.1215,-1.1194,-1.1194,-1.1194,-1.1194,0,-1.1379,-1.137,-1.137,-1.1349,-1.1341,-1.1336,-1.1314,-1.1308,-1.1295,-1.1281,-1.1272,-1.1255,-1.124,-1.1237,-1.1224,-1.1226,-1.1223,-1.1212,-1.1199,-1.1214,-1.1217,-1.1218,-1.1196,-1.1196,-1.1195,-1.1195,0,0,-1.1413,-1.1381,-1.1381,-1.1371,-1.1349,-1.1342,-1.1336,-1.1321,-1.1315,-1.1301,-1.1295,-1.1281,-1.127,-1.1261,-1.1247,-1.1245,-1.1255,-1.1234,-1.1233,-1.1238,-1.1256,-1.1263,-1.1265,-1.1246,-1.1247,-1.1247,-1.1257,0,-1.1426,-1.1414,-1.1395,-1.1389,-1.138,-1.1359,-1.1354,-1.1339,-1.1326,-1.1317,-1.1302,-1.1292,-1.128,-1.1273,-1.1271,-1.1255,-1.1259,-1.1254,-1.124,-1.124,-1.1244,-1.1267,-1.1275,-1.1286,-1.1258,-1.1258,-1.1259,0,-1.144,-1.1427,-1.1419,-1.1397,-1.1393,-1.1388,-1.1373,-1.1365,-1.1348,-1.1338,-1.1327,-1.1312,-1.1304,-1.1293,-1.1282,-1.128,-1.1273,-1.1264,-1.1264,-1.1261,-1.1249,-1.1264,-1.1289,-1.129,-1.126,-1.126,-1.126,0,-1.1464,-1.1445,-1.1438,-1.143,-1.1404,-1.1402,-1.1391,-1.1373,-1.1365,-1.1352,-1.1346,-1.1333,-1.1325,-1.1314,-1.1296,-1.1289,-1.1286,-1.1274,-1.1278,-1.1278,-1.1277,-1.1277,-1.13,-1.1275,-1.1275,-1.1275,-1.1274,0,-1.148,-1.1476,-1.1448,-1.1444,-1.1439,-1.1418,-1.1414,-1.1401,-1.1386,-1.1378,-1.136,-1.1353,-1.1329,-1.132,-1.1306,-1.1298,-1.1295,-1.1287,-1.1283,-1.1288,-1.1289,-1.1282,-1.1281,-1.1275,-1.1275,-1.1275,-1.1275,0,-1.1506,-1.1487,-1.1478,-1.1455,-1.1448,-1.1446,-1.1425,-1.142,-1.1406,-1.1397,-1.1394,-1.1371,-1.1359,-1.134,-1.1323,-1.1313,-1.1308,-1.1302,-1.1313,-1.1311,-1.1315,-1.1315,-1.1334,-1.1335,-1.131,-1.131,-1.131,0,-1.1517,-1.1514,-1.149,-1.1483,-1.1473,-1.1463,-1.1455,-1.1434,-1.1426,-1.1407,-1.1404,-1.1391,-1.1379,-1.1361,-1.1343,-1.1329,-1.1322,-1.133,-1.132,-1.1325,-1.1321,-1.1321,-1.1321,-1.1332,-1.1332,-1.1333,-1.1333,0,-1.1539,-1.1529,-1.1518,-1.1504,-1.1494,-1.1482,-1.1468,-1.1464,-1.1441,-1.1433,-1.142,-1.1411,-1.1393,-1.138,-1.1364,-1.1353,-1.1339,-1.1336,-1.1336,-1.1341,-1.1348,-1.1343,-1.1318,-1.1336,-1.1335,-1.1335,-1.1335,-1.1335,-1.1557,-1.1552,-1.1535,-1.1523,-1.151,-1.1498,-1.1492,-1.1477,-1.1467,-1.145,-1.1439,-1.1427,-1.141,-1.1387,-1.1377,-1.1367,-1.1361,-1.1361,-1.1361,-1.1361,-1.1362,-1.135,-1.1364,-1.1364,-1.1364,-1.1364,-1.1364,0,-1.1576,-1.1564,-1.1553,-1.1535,-1.1525,-1.1513,-1.1498,-1.1491,-1.1481,-1.1466,-1.1455,-1.144,-1.1427,-1.1409,-1.1394,-1.139,-1.1383,-1.1387,-1.1387,-1.1384,-1.1369,-1.137,-1.1393,-1.1393,-1.1393,-1.1393,-1.1393,-1.1393,-1.1585,-1.1577,-1.1566,-1.1552,-1.1539,-1.1527,-1.1519,-1.1508,-1.1496,-1.1481,-1.147,-1.1458,-1.1442,-1.1426,-1.1414,-1.1408,-1.1404,-1.1409,-1.1402,-1.1388,-1.1385,-1.1383,-1.1383,-1.1409,-1.1409,-1.1418,-1.1418,-1.1418]},{"header":{"parameterUnit":"m.s-1","parameterCategory":1,"la1":30.2991,"la2":30.254,"lo1":-89.0895,"lo2":-89.0444,"dy":0.0017,"dx":0.0017,"nx":28,"ny":28,"refTime":"2025-08-06T21:00:00:Z","depth":0,"parameterNumber":3,"parameterNumberName":"V-component_of_WINDS"},"data":[0,0,0,0,0,0,0,0,0,0,0,0,0,0,0,0,0,0,0,0,0,0,0,0,0,0,0,0,0,0,0,0,0,0,0,0,0,0,0,0,0,0,0,0,0,0,0,0,0,0,0,0,0,0,0,0,0,0,2.1927,2.1927,0,2.1895,2.1895,2.1894,2.1875,2.1875,2.1874,2.1874,2.1838,2.1837,2.1836,0,0,0,0,0,0,0,0,0,0,0,0,0,2.1968,2.1967,2.1927,2.1927,2.1926,2.1895,2.1895,2.1894,2.1875,2.1875,2.1874,2.1874,2.1838,2.1837,2.1836,0,0,0,0,0,0,0,0,0,0,0,0,0,2.1944,2.1967,2.1927,2.1913,2.1911,2.1895,2.1895,2.1894,2.1875,2.1875,2.1874,2.1874,2.1838,2.1837,2.1836,2.183,0,0,2.1831,2.1831,0,0,0,0,0,0,0,0,2.1946,2.1943,2.1915,2.1914,2.1912,2.1889,2.1895,2.1872,2.1875,2.1888,2.1874,2.1874,2.1854,2.1852,2.1846,2.1828,2.1826,2.1831,2.183,2.183,2.183,0,0,0,0,0,0,0,2.1947,2.1944,2.1914,2.1915,2.1913,2.1907,2.1903,2.1891,2.1872,2.1887,2.1886,2.1882,2.1853,2.1847,2.1845,2.1826,2.1831,2.183,2.1829,2.1829,2.1801,2.1801,0,0,0,0,0,0,2.1952,2.1946,2.1915,2.1913,2.1929,2.1906,2.1902,2.1896,2.1873,2.1869,2.1883,2.1882,2.185,2.1846,2.1843,2.1835,2.183,2.1829,2.1828,2.1801,2.1801,2.1801,0,0,0,0,0,0,2.1953,2.1949,2.1917,2.1929,2.1924,2.1906,2.1899,2.1896,2.189,2.1869,2.1865,2.188,2.1849,2.1845,2.1833,2.1833,2.1828,2.1827,2.1801,2.1801,2.1801,2.1818,0,0,0,0,0,0,2.1954,2.195,2.1948,2.1929,2.1924,2.1908,2.1899,2.1895,2.1888,2.1886,2.1866,2.1862,2.1849,2.1836,2.1832,2.1831,2.1826,2.1801,2.1801,2.1801,2.1817,2.1818,2.1819,0,0,0,0,0,2.1956,2.1953,2.1948,2.1945,2.1922,2.1908,2.1905,2.1891,2.1888,2.1885,2.1872,2.1863,2.1834,2.1835,2.183,2.1829,2.1801,2.1801,2.1801,2.1817,2.1818,2.1819,0,0,0,0,0,0,2.1972,2.1951,2.1945,2.1937,2.1925,2.1905,2.1902,2.1894,2.1881,2.188,2.1862,2.1858,2.1848,2.1837,2.1838,2.1822,2.1816,2.1816,2.1829,2.1831,2.1832,2.1834,2.1825,0,0,0,0,0,2.1974,2.1966,2.1948,2.1943,2.1937,2.1921,2.1914,2.1905,2.1891,2.1885,2.1871,2.1857,2.1845,2.1837,2.1825,2.1816,2.181,2.1813,2.1814,2.1815,2.1814,2.1808,2.1809,2.1802,2.1802,2.1802,0,0,2.198,2.1967,2.1963,2.1946,2.1935,2.1926,2.1916,2.1907,2.19,2.1884,2.1872,2.1861,2.1844,2.1833,2.1828,2.1824,2.1815,2.1815,2.1816,2.1815,2.1808,2.1809,2.181,2.1802,2.1802,2.1802,0,0,2.1985,2.1975,2.1969,2.1959,2.1944,2.1933,2.1932,2.1914,2.1906,2.1895,2.1882,2.1872,2.1852,2.184,2.1832,2.1833,2.1823,2.1829,2.1835,2.1829,2.1829,2.183,2.1829,2.183,2.1828,2.1829,2.1829,0,2.1993,2.198,2.1967,2.1959,2.1951,2.1937,2.1931,2.1921,2.1902,2.1897,2.1893,2.1867,2.1855,2.1841,2.1841,2.1835,2.1832,2.1831,2.1831,2.1831,2.1831,2.183,2.183,2.1829,2.1829,2.1829,2.1829,0,2.199,2.1982,2.1979,2.1962,2.1954,2.1947,2.1931,2.1925,2.1916,2.1905,2.1893,2.1878,2.1862,2.1858,2.1849,2.1842,2.1841,2.1834,2.1828,2.1833,2.1832,2.1832,2.183,2.183,2.183,2.183,0,0,2.2004,2.1981,2.198,2.1972,2.1955,2.1947,2.1938,2.1924,2.1919,2.1906,2.1898,2.1881,2.1875,2.1865,2.1855,2.1849,2.185,2.1843,2.1843,2.1845,2.1842,2.1847,2.1847,2.1844,2.1844,2.1844,2.1843,0,2.2006,2.1992,2.198,2.1969,2.1961,2.1947,2.194,2.1928,2.1917,2.1907,2.1895,2.1883,2.1877,2.1871,2.1865,2.1852,2.1849,2.1851,2.1835,2.1835,2.1839,2.1846,2.1851,2.1851,2.1843,2.1843,2.1843,0,2.2006,2.1996,2.1985,2.1968,2.1964,2.1958,2.1944,2.1935,2.192,2.1913,2.1902,2.1891,2.1881,2.1876,2.186,2.1862,2.1854,2.1847,2.1846,2.1844,2.1839,2.1843,2.1851,2.1851,2.1842,2.1842,2.1842,0,2.2017,2.1999,2.1991,2.1985,2.1965,2.1961,2.1952,2.1937,2.193,2.1917,2.1911,2.1897,2.1889,2.1878,2.1863,2.1861,2.1849,2.1843,2.1841,2.1842,2.1839,2.1839,2.1845,2.1835,2.1835,2.1835,2.1835,0,2.202,2.2014,2.1995,2.199,2.1982,2.1968,2.196,2.195,2.1937,2.1929,2.1916,2.1908,2.1889,2.1878,2.1867,2.1855,2.1852,2.1844,2.1841,2.1845,2.1846,2.184,2.1839,2.1835,2.1835,2.1835,2.1835,0,2.203,2.2018,2.2007,2.199,2.1985,2.198,2.1965,2.1958,2.1947,2.1937,2.1933,2.1916,2.1902,2.1887,2.1868,2.186,2.1849,2.1845,2.1855,2.1853,2.1852,2.1852,2.1853,2.1852,2.1844,2.1844,2.1844,0,2.2033,2.2028,2.201,2.2004,2.1997,2.1987,2.1979,2.1965,2.1957,2.194,2.1936,2.1922,2.191,2.1889,2.1874,2.1859,2.1854,2.1855,2.1851,2.1856,2.1853,2.1854,2.1853,2.1856,2.1856,2.1856,2.1857,0,2.2039,2.2033,2.2023,2.2011,2.2003,2.1992,2.1981,2.1976,2.196,2.1951,2.1939,2.193,2.1911,2.1897,2.1881,2.187,2.186,2.1858,2.1857,2.1861,2.1866,2.1863,2.1857,2.1858,2.1858,2.1858,2.1858,2.1857,2.2045,2.204,2.2027,2.2016,2.2006,2.1996,2.1989,2.1978,2.1968,2.1953,2.1944,2.1931,2.1916,2.1893,2.1883,2.1872,2.1869,2.1867,2.1866,2.1866,2.1867,2.1869,2.1869,2.1869,2.1869,2.1869,2.1869,0,2.2049,2.204,2.2031,2.2016,2.2008,2.2001,2.1988,2.1981,2.197,2.1958,2.1947,2.1932,2.1918,2.1902,2.1887,2.1881,2.1876,2.1877,2.1877,2.1875,2.1871,2.1874,2.1882,2.1882,2.1882,2.1882,2.1882,2.1882,2.2051,2.2042,2.2034,2.202,2.2011,2.1999,2.1993,2.1983,2.1973,2.1957,2.1946,2.1936,2.1922,2.1906,2.1893,2.1888,2.1883,2.1886,2.188,2.1876,2.1875,2.1874,2.1876,2.1885,2.1885,2.1884,2.1884,2.1884]}]]